Location: Table Mountain
(47.2500°N, 120.5778°W)
Time: 19:13:54
(UTC-07:00)

Tiangong 1 - Pass Details

Date: 07 October 2017
Orbit: 292 x 319 km, 42.8° (Epoch: 23 October)

Event Time Altitude Azimuth Distance (km) Brightness Sun altitude
Rises 20:22:42 0° 250° (WSW) 2,023 5.7 -20.0°
Reaches altitude 10° 20:24:48 10° 238° (WSW) 1,189 4.1 -20.3°
Enters shadow 20:25:54 19° 222° (SW) 819 3.0 -20.5°
